Regional Weather Roundup
Issued by NWS

Home | Current Version | Previous Version | Graphics & Text | Print | Product List | Glossary Off
Versions: 1 2 3 4 5 6 7 8 9 10 11 12 13 14 15 16 17 18 19 20 21 22 23 24 25 26 27 28 29 30 31 32 33 34 35 36 37 38 39 40 41 42 43 44 45 46 47 48 49 50

000
ASUS43 KLOT 262010
RWRIL

ILLINOIS REGIONAL WEATHER ROUNDUP
NATIONAL WEATHER SERVICE CHICAGO/ROMEOVILLE IL
200 PM CST MON JAN 26 2015

NOTE: "FAIR" INDICATES FEW OR NO CLOUDS BELOW 12,000 FEET WITH NO
SIGNIFICANT WEATHER AND/OR OBSTRUCTIONS TO VISIBILITY.

* THESE STATIONS ARE NOT UNDER NWS QUALITY CONTROL. THEY ALSO MAY NOT
  REPORT WEATHER SUCH AS PRECIPITATION OR FOG.

ILZ001-002-007-009-015-016-024-262100-
NORTHWEST ILLINOIS

CITY           SKY/WX    TMP DP  RH WIND       PRES   REMARKS
MOLINE         CLOUDY    29  25  85 S7        29.81S WCI  22
STERLING*      CLOUDY    25  19  80 SE7       29.83S WCI  17
SAVANNA*       CLOUDY    26  22  84 S6        29.82F WCI  19
$$

ILZ003-004-008-010-011-017-018-262100-
NORTH CENTRAL ILLINOIS

CITY           SKY/WX    TMP DP  RH WIND       PRES   REMARKS
ROCKFORD       FRZ DRZL  23  18  81 S10       29.85F WCI  12
FREEPORT*      CLOUDY    22  19  89 SE9       29.83F WCI  12
ROCHELLE*      CLOUDY    22  19  89 SE12      29.84F WCI  11
DE KALB*       FLURRIES  22  18  85 S10       29.84F WCI  11
PERU*          CLOUDY    27  23  86 SE8       29.85F WCI  18
$$

ILZ005-006-012>014-019>023-262100-
NORTHEAST ILLINOIS

CITY           SKY/WX    TMP DP  RH WIND       PRES   REMARKS
CHICAGO-OHARE  FLURRIES  26  18  71 S6        29.86F WCI  19
CHICAGO-MIDWAY LGT SNOW  28  20  71 S7        29.88F WCI  21
AURORA         LGT SNOW  26  18  71 S8        29.86F WCI  18
LANSING*       CLOUDY    27  21  78 SW6       29.88F WCI  20
JOLIET*        LGT SNOW  27  20  76 S5        29.88S WCI  21
WAUKEGAN       LGT SNOW  27  17  66 CALM      29.86S
DUPAGE AIRPORT LGT SNOW  26  19  74 S7        29.85F WCI  18
KANKAKEE*      CLOUDY    28  22  79 SW5       29.89F WCI  22
WHEELING       LGT SNOW  26  18  71 SW5       29.88F WCI  20
MORRIS*        MIX PCPN  26  23  87 S7        29.86F WCI  19
ROMEOVILLE*    LGT SNOW  27  20  76 S6        29.87S WCI  20
NORTHERLY ISL    N/A     28  18  66 S5          N/A  WCI  23
$$

LMZ740>746-262100-
SOUTHERN LAKE MICHIGAN

STATION/POSITION SKY/WX   TEMP    WIND        PRES    VSBY  WAVE
                          AIR SEA DIR/SP/G                  HT/PER
                          (F)     (DEG/KT/KT) (MB)    (MI)  (FT/S)
WAUKEGAN HARBOR            27      CALM  /  5   N/A
HARRISON CRIB              26     180/  6/  8   N/A
BURNHAM HARBOR             28     190/  3/  8   N/A
CALUMET HARBOR             27     150/  6/  8   N/A
MICHIGAN CITY              23     140/  3/  7   N/A
$$

ILZ025>027-034>036-040-047-049-050-058-095>099-262100-
WEST-CENTRAL ILLINOIS

CITY           SKY/WX    TMP DP  RH WIND       PRES   REMARKS
QUINCY         CLOUDY    37  31  78 SW6       29.84R WCI  32
GALESBURG*     CLOUDY    29  27  92 S9        29.82S WCI  20
MACOMB*        CLOUDY    32  29  90 S8        29.85S WCI  25
JACKSONVILLE*  CLOUDY    34  29  83 S9        29.86F WCI  27
PITTSFIELD*    PTSUNNY   36  31  83 S7        29.85S WCI  30
$$

ILZ028>032-037-038-041>044-048-051>054-059>061-262100-
CENTRAL ILLINOIS

CITY           SKY/WX    TMP DP  RH WIND       PRES   REMARKS
PONTIAC        MIX PCPN  28  25  86 S6        29.88F WCI  22
BLOOMINGTON    LGT SNOW  26  25  96 S9        29.86F FOG     WCI  17
DECATUR        LGT SNOW  28  27  96 S8        29.88F FOG     WCI  20
PEORIA         CLOUDY    28  24  85 S10       29.85F WCI  19
LACON*         CLOUDY    27  23  85 S8        29.84F WCI  18
LINCOLN*       CLOUDY    30  26  87 S10       29.89F WCI  21
SPRINGFIELD    CLOUDY    31  27  85 S10       29.86F WCI  22
TAYLORVILLE    CLOUDY    30  28  93 S8        29.87F FOG     WCI  23
$$

ILZ033-039-045-046-055>057-062-063-262100-
EAST-CENTRAL ILLINOIS

CITY           SKY/WX    TMP DP  RH WIND       PRES   REMARKS
CHAMPAIGN      LGT SNOW  27  23  85 S7        29.88F VSB 1   WCI  19
DANVILLE*      CLOUDY    28  22  78 W7        29.88F WCI  21
RANTOUL*       LGT SNOW  29  23  79 S5        29.88F WCI  24
MATTOON        LGT SNOW  28  22  78 MISG      29.91F
PARIS*         CLOUDY    29  24  81 NE6       29.92F WCI  23
$$

ILZ079-100>102-262100-
SOUTHWEST ILLINOIS

CITY           SKY/WX    TMP DP  RH WIND       PRES   REMARKS
ALTON          CLOUDY    34  28  80 S9        29.90F WCI  26
BELLEVILLE     CLOUDY    35  28  76 S9        29.91F WCI  28
CAHOKIA*       CLOUDY    36  28  73 S7        29.90F WCI  30
SPARTA*        CLOUDY    34  27  76 CALM      29.95S
$$

ILZ064>066-069>071-074>076-080>082-084>086-088>090-092>094-262100-
SOUTH-CENTRAL ILLINOIS

CITY           SKY/WX    TMP DP  RH WIND       PRES   REMARKS
CARBONDALE     CLOUDY    34  25  69 CALM      29.97F
CAIRO*         CLOUDY    39  30  70 SW9       29.97F WCI  33
EFFINGHAM*     LGT SNOW  29  23  76 S5        29.94F WCI  24
MARION         CLOUDY    34  27  75 NW12      29.99S WCI  25
MT. VERNON     CLOUDY    30  25  80 CALM      29.96F
CENTRALIA*     LGT SNOW  30  26  84 SW6       29.93F WCI  24
SALEM*         CLOUDY    31  28  88 SW6       29.94F FOG     WCI  26
METROPOLIS*    CLOUDY    36  29  74 SW8       29.95F WCI  30
$$

ILZ067-068-072-073-078-083-087-091-262100-
SOUTHEAST ILLINOIS

CITY           SKY/WX    TMP DP  RH WIND       PRES   REMARKS
LAWRENCEVILLE  CLOUDY    30  23  75 W10       29.97R WCI  21
FLORA*         FLURRIES  31  24  75 W8        29.96F WCI  23
FAIRFIELD*     LGT SNOW  31  25  80 W3        29.96S
HARRISBURG*    LGT SNOW  32  27  82 W7        29.98F WCI  25
ROBINSON*      CLOUDY    29  24  81 W9        29.96F WCI  21
CARMI*         CLOUDY    34  27  75 W13       29.97R WCI  25
$$

ABBREVIATIONS USED IN REMARKS
   TC - TEMPERATURE IN CELSIUS
  WCI - WIND CHILL INDEX
   HX - HEAT INDEX
  VSB - VISIBILITY
$$



USA.gov is the U.S. government's official web portal to all federal, state and local government web resources and services.